Flag for Canada Weather past 2 weeks in Fort Liard, Northwest Territories, Canada

Now
31 °F

Chilly.


Feels Like: 31 °F
Forecast: 30 / 43 °F
Wind: No wind

Location: Lindberg Landing

Current Time: Oct 21, 2014 at 11:16:50 AM

Latest Report: Oct 21, 2014 at 10:00 AM


Visibility: N/A

Pressure: 29.49 "Hg

Humidity: 96%

Dew point: 30 °F

Location of Fort LiardLocation

Historic Weather in Fort Liard — Graph

°F

Fort Liard temperature yesterday

Maximum temperature yesterday: 38 °F (at 5:00 PM)
Minimum temperature yesterday: 31 °F (at 8:00 AM)
Average temperature yesterday: 33 °F

Past Weeks' High & Low Weather Summary

 TemperatureHumidityPressure
High61 °F (Oct 11, 3:00 PM)100% (Oct 7, 8:00 AM)30.19 "Hg (Oct 7, 8:00 AM)
Low24 °F (Oct 15, 8:00 AM)30% (Oct 6, 5:00 PM)29.24 "Hg (Oct 11, 5:00 AM)
Average33 °F92%29.76 "Hg
* Reported Oct 6 10:00 AM — Oct 21 10:00 AM, Fort Liard, Weather by CustomWeather, © 2014

Note: Actual official high and low records may vary slightly from our data, if they occured in-between our weather recording intervals... More about our weather records

Advertising

Fort Liard weather history for previous 24 hours

 ConditionsComfort  
Time TempWeatherWind HumidityBarometerVisibility
10:00 AM
Oct 21
31 °FChilly.No wind96%29.49 "HgN/A
9:00 AM30 °FChilly.No wind98%29.48 "HgN/A
8:00 AM31 °FChilly.2 mph100%29.47 "HgN/A
7:00 AM31 °FChilly.2 mph100%29.46 "HgN/A
6:00 AM33 °FChilly.1 mph100%29.44 "HgN/A
5:00 AM32 °FChilly.1 mph100%29.43 "HgN/A
4:00 AM32 °FChilly.2 mph100%29.42 "HgN/A
3:00 AM31 °FChilly.5 mph100%29.41 "HgN/A
2:00 AM33 °FChilly.7 mph95%29.39 "HgN/A
1:00 AM33 °FChilly.6 mph94%29.37 "HgN/A
12:00 AM33 °FChilly.6 mph92%29.37 "HgN/A
11:00 PM
Oct 20
33 °FChilly.5 mph98%29.36 "HgN/A
10:00 PM34 °FChilly.7 mph97%29.36 "HgN/A
9:00 PM34 °FChilly.5 mph97%29.35 "HgN/A
8:00 PM35 °FChilly.6 mph96%29.35 "HgN/A
7:00 PM33 °FChilly.5 mph100%29.34 "HgN/A
6:00 PM36 °FChilly.6 mph91%29.34 "HgN/A
5:00 PM38 °FChilly.6 mph87%29.33 "HgN/A
4:00 PM37 °FChilly.7 mph86%29.33 "HgN/A
3:00 PM37 °FChilly.8 mph86%29.33 "HgN/A
2:00 PM35 °FChilly.9 mph87%29.33 "HgN/A
1:00 PM33 °FChilly.9 mph96%29.34 "HgN/A
12:00 PM34 °FChilly.9 mph91%29.35 "HgN/A
11:00 AM33 °FChilly.7 mph95%29.35 "HgN/A
Weather by CustomWeather, © 2014

See weather overviewHow to use our weather pages